Weather History for Franklin, PA

Change the Weather History Date:

Tuesday, September 18, 2012

  Actual Average Record
Temperature  
Mean Temperature 57 °F -  
Max Temperature 66 °F 72 °F 93 °F (1931)
Min Temperature 48 °F 50 °F 31 °F (1937)
Degree Days  
Heating Degree Days 8    
Growing Degree Days 7 (Base 50)    
Moisture  
Dew Point 56 °F    
Average Humidity 91    
Maximum Humidity 100    
Minimum Humidity 77    
Precipitation  
Precipitation 0.49 in - - ()
Sea Level Pressure  
Sea Level Pressure 29.73 in    
Wind  
Wind Speed 8 mph (SW)    
Max Wind Speed 17 mph    
Max Gust Speed 24 mph    
Visibility 8 miles    
Events      
Averages and records for this station are not official NWS values.
T = Trace of Precipitation, MM = Missing Value Source: NWS Daily Summary

Daily Weather History Graph

Daily Weather History Graph

Search for Another Location

Airport:

Trip Planner

Search our weather history database for the weather conditions in past years. The results will help you decide how hot, cold, wet, or windy it might be!

Date:

Astronomy

Sep. 18, 2012 Rise Set
Actual Time 7:03 AM EDT 7:22 PM EDT
Civil Twilight 6:35 AM EDT 7:50 PM EDT
Nautical Twilight 6:03 AM EDT 8:22 PM EDT
Astronomical Twilight 5:29 AM EDT 8:55 PM EDT
Moon 10:03 AM EDT 8:41 PM EDT
Length of Visible Light 13h 14m
Length of Day
12h 19m
Waxing Crescent, 9% of the Moon is Illuminated
Sep 18
Waxing Crescent
Sep 22
First Quarter
Sep 29
Full
Oct 8
Last Quarter
Oct 15
New

Hourly Weather History & Observations

Time (EDT) Temp. Dew Point Humidity Pressure Visibility Wind Dir Wind Speed Gust Speed Precip Events Conditions
12:15 AM 60.8 °F 53.6 °F 77% 29.89 in 10.0 mi South 12.7 mph - N/A   Mostly Cloudy
12:35 AM 60.8 °F 55.4 °F 82% 29.88 in 10.0 mi South 10.4 mph - N/A   Overcast
12:55 AM 60.8 °F 57.2 °F 88% 29.87 in 10.0 mi South 10.4 mph - 0.01 in   Overcast
1:15 AM 60.8 °F 57.2 °F 88% 29.87 in 10.0 mi South 9.2 mph - N/A   Overcast
1:35 AM 60.8 °F 57.2 °F 88% 29.85 in 10.0 mi South 8.1 mph - N/A   Overcast
1:55 AM 60.8 °F 57.2 °F 88% 29.84 in 10.0 mi SSE 8.1 mph - N/A   Overcast
2:15 AM 60.8 °F 57.2 °F 88% 29.83 in 9.0 mi SSE 8.1 mph - 0.01 in   Overcast
2:35 AM 60.8 °F 57.2 °F 88% 29.82 in 7.0 mi SSE 6.9 mph - 0.01 in   Mostly Cloudy
2:55 AM 60.8 °F 57.2 °F 88% 29.80 in 7.0 mi South 9.2 mph - 0.01 in   Overcast
3:35 AM 60.8 °F 59.0 °F 94% 29.79 in 6.0 mi South 6.9 mph - N/A   Mostly Cloudy
3:55 AM 60.8 °F 59.0 °F 94% 29.78 in 6.0 mi SSE 8.1 mph - N/A   Overcast
4:15 AM 60.8 °F 59.0 °F 94% 29.77 in 5.0 mi South 11.5 mph 16.1 mph N/A   Overcast
4:35 AM 60.8 °F 59.0 °F 94% 29.76 in 6.0 mi South 10.4 mph - 0.01 in   Mostly Cloudy
4:55 AM 60.8 °F 59.0 °F 94% 29.75 in 5.0 mi South 9.2 mph - 0.05 in   Overcast
5:15 AM 60.8 °F 59.0 °F 94% 29.74 in 5.0 mi South 6.9 mph - 0.03 in   Mostly Cloudy
5:35 AM 60.8 °F 59.0 °F 94% 29.72 in 5.0 mi South 8.1 mph - 0.07 in   Overcast
5:55 AM 60.8 °F 59.0 °F 94% 29.71 in 5.0 mi South 5.8 mph - 0.11 in   Mostly Cloudy
6:15 AM 60.8 °F 59.0 °F 94% 29.69 in 5.0 mi South 4.6 mph - 0.06 in   Overcast
6:35 AM 60.8 °F 59.0 °F 94% 29.68 in 5.0 mi SE 4.6 mph - 0.08 in   Overcast
6:55 AM 60.8 °F 59.0 °F 94% 29.67 in 8.0 mi SSE 5.8 mph - 0.10 in   Overcast
7:15 AM 60.8 °F 59.0 °F 94% 29.66 in 7.0 mi ESE 5.8 mph - 0.01 in   Overcast
7:35 AM 60.8 °F 59.0 °F 94% 29.64 in 6.0 mi Calm Calm - 0.02 in   Overcast
7:55 AM 60.8 °F 59.0 °F 94% 29.64 in 5.0 mi Calm Calm - 0.05 in   Overcast
8:15 AM 60.8 °F 59.0 °F 94% 29.62 in 5.0 mi Calm Calm - 0.03 in   Overcast
8:35 AM 60.8 °F 60.8 °F 100% 29.62 in 5.0 mi Calm Calm - 0.05 in   Overcast
8:55 AM 60.8 °F 60.8 °F 100% 29.60 in 5.0 mi Calm Calm - 0.06 in   Overcast
9:15 AM 60.8 °F 60.8 °F 100% 29.59 in 9.0 mi Calm Calm - 0.01 in   Overcast
9:55 AM 62.6 °F 60.8 °F 94% 29.61 in 7.0 mi WSW 5.8 mph - 0.02 in   Overcast
10:15 AM 62.6 °F 60.8 °F 94% 29.62 in 10.0 mi WSW 5.8 mph - N/A   Overcast
10:35 AM 62.6 °F 60.8 °F 94% 29.62 in 10.0 mi SW 6.9 mph - N/A   Overcast
10:55 AM 62.6 °F 60.8 °F 94% 29.62 in 10.0 mi SW 6.9 mph - N/A   Overcast
11:15 AM 64.4 °F 62.6 °F 94% 29.61 in 10.0 mi SW 10.4 mph - N/A   Overcast
11:35 AM 64.4 °F 62.6 °F 94% 29.60 in 10.0 mi WSW 6.9 mph - N/A   Overcast
11:55 AM 66.2 °F 62.6 °F 88% 29.61 in 10.0 mi West 12.7 mph 18.4 mph N/A   Overcast
12:15 PM 64.4 °F 60.8 °F 88% 29.61 in 10.0 mi SW 8.1 mph - N/A   Overcast
12:35 PM 64.4 °F 60.8 °F 88% 29.61 in 9.0 mi SW 11.5 mph 16.1 mph N/A   Overcast
12:55 PM 64.4 °F 60.8 °F 88% 29.61 in 10.0 mi WSW 8.1 mph - N/A   Overcast
1:15 PM 66.2 °F 62.6 °F 88% 29.60 in 10.0 mi WSW 10.4 mph - N/A   Overcast
1:35 PM 66.2 °F 60.8 °F 83% 29.60 in 10.0 mi SW 9.2 mph 20.7 mph N/A   Mostly Cloudy
1:55 PM 64.4 °F 60.8 °F 88% 29.61 in 9.0 mi West 11.5 mph 18.4 mph 0.01 in   Overcast
2:15 PM 64.4 °F 62.6 °F 94% 29.60 in 10.0 mi West 9.2 mph - N/A   Mostly Cloudy
2:35 PM 64.4 °F 60.8 °F 88% 29.61 in 5.0 mi WSW 11.5 mph - N/A   Mostly Cloudy
2:55 PM 62.6 °F 60.8 °F 94% 29.62 in 7.0 mi West 17.3 mph 21.9 mph 0.02 in   Overcast
3:15 PM 60.8 °F 57.2 °F 88% 29.63 in 8.0 mi WNW 12.7 mph 24.2 mph 0.03 in   Overcast
3:35 PM 59.0 °F 57.2 °F 94% 29.64 in 5.0 mi WNW 9.2 mph 19.6 mph 0.04 in   Overcast
3:55 PM 59.0 °F 57.2 °F 94% 29.66 in 10.0 mi WNW 10.4 mph 19.6 mph 0.05 in   Overcast
4:15 PM 57.2 °F 55.4 °F 94% 29.66 in 9.0 mi WNW 11.5 mph 18.4 mph N/A   Overcast
4:35 PM 57.2 °F 55.4 °F 94% 29.68 in 5.0 mi WNW 10.4 mph 24.2 mph N/A   Overcast
4:55 PM 57.2 °F 55.4 °F 94% 29.70 in 3.0 mi NW 13.8 mph 23.0 mph N/A   Overcast
5:15 PM 55.4 °F 53.6 °F 94% 29.71 in 10.0 mi WNW 10.4 mph 20.7 mph N/A   Overcast
5:55 PM 55.4 °F 51.8 °F 88% 29.74 in 10.0 mi NW 10.4 mph - N/A   Overcast
6:15 PM 55.4 °F 51.8 °F 88% 29.74 in 10.0 mi WNW 8.1 mph - N/A   Overcast
6:35 PM 55.4 °F 51.8 °F 88% 29.75 in 10.0 mi WNW 8.1 mph - N/A   Overcast
6:55 PM 55.4 °F 51.8 °F 88% 29.77 in 10.0 mi WNW 9.2 mph - N/A   Overcast
7:15 PM 55.4 °F 51.8 °F 88% 29.79 in 10.0 mi WNW 10.4 mph - N/A   Mostly Cloudy
7:35 PM 53.6 °F 50.0 °F 88% 29.80 in 10.0 mi West 6.9 mph - N/A   Scattered Clouds
7:55 PM 53.6 °F 48.2 °F 82% 29.81 in 10.0 mi WNW 6.9 mph - N/A   Clear
8:15 PM 51.8 °F 48.2 °F 88% 29.82 in 10.0 mi West 6.9 mph - N/A   Clear
8:35 PM 51.8 °F 48.2 °F 88% 29.83 in 10.0 mi West 5.8 mph - N/A   Clear
8:55 PM 51.8 °F 48.2 °F 88% 29.84 in 10.0 mi West 6.9 mph - N/A   Clear
9:15 PM 51.8 °F 48.2 °F 88% 29.86 in 10.0 mi WSW 4.6 mph - N/A   Mostly Cloudy
9:35 PM 50.0 °F 46.4 °F 87% 29.86 in 10.0 mi West 5.8 mph - N/A   Partly Cloudy
9:55 PM 48.2 °F 46.4 °F 93% 29.87 in 10.0 mi WSW 6.9 mph - N/A   Clear
10:15 PM 48.2 °F 46.4 °F 93% 29.87 in 10.0 mi WSW 6.9 mph - N/A   Mostly Cloudy
10:35 PM 50.0 °F 46.4 °F 87% 29.89 in 10.0 mi West 10.4 mph 17.3 mph N/A   Mostly Cloudy
10:55 PM 50.0 °F 46.4 °F 87% 29.90 in 10.0 mi WNW 5.8 mph - N/A   Scattered Clouds
11:15 PM 48.2 °F 46.4 °F 93% 29.91 in 10.0 mi West 5.8 mph - N/A   Mostly Cloudy
11:55 PM 48.2 °F 44.6 °F 87% 29.91 in 10.0 mi WSW 5.8 mph - N/A   Scattered Clouds